User: anonymous   Login
Location: Unspecified
(0.0000°N, 0.0000°E)
Time: 10:49:48
(UTC+00:00)
Language:

HESSI - Orbit

View from above orbital plane
View from above orbital plane
View from above satellite
View from above satellite

Ground track
Ground track

The orbit data is extracted from the following two-line orbital elements,

1 27370U 02004A   18200.31802717 +.00001427 +00000-0 +52196-4 0  9996
2 27370 038.0320 144.3203 0011606 027.4000 332.7381 15.30345938907094
Epoch (UTC): 19 July 2018 07:37:57
Eccentricity: 0.0011606
inclination: 38.0320°
perigee height: 467 km
apogee height: 483 km
right ascension of ascending node: 144.3203°
argument of perigee: 27.4000°
revolutions per day: 15.30345938
mean anomaly at epoch: 332.7381°
orbit number at epoch: 90709

The dashed part of the orbit path shows where the satellite is in the earth's shadow,  

DLR